Weather History for Keokuk, IA

Change the Weather History Date:

Saturday, February 23, 2013

  Actual Average Record
Temperature  
Mean Temperature 26 °F -  
Max Temperature 32 °F 42 °F 65 °F (1933)
Min Temperature 19 °F 26 °F -2 °F (1989)
Degree Days  
Heating Degree Days 40    
Moisture  
Dew Point 14 °F    
Average Humidity 60    
Maximum Humidity 68    
Minimum Humidity 51    
Precipitation  
Precipitation 0.08 in - - ()
Sea Level Pressure  
Sea Level Pressure 29.99 in    
Wind  
Wind Speed 7 mph (WSW)    
Max Wind Speed 10 mph    
Max Gust Speed -    
Visibility 10 miles    
Events      
Averages and records for this station are not official NWS values.
T = Trace of Precipitation, MM = Missing Value Source: NWS Daily Summary

Daily Weather History Graph

Daily Weather History Graph

Search for Another Location

Airport:

Trip Planner

Search our weather history database for the weather conditions in past years. The results will help you decide how hot, cold, wet, or windy it might be!

Date:

Astronomy

Feb. 23, 2013 Rise Set
Actual Time 6:47 AM CST 5:50 PM CST
Civil Twilight 6:20 AM CST 6:18 PM CST
Nautical Twilight 5:48 AM CST 6:49 PM CST
Astronomical Twilight 5:17 AM CST 7:21 PM CST
Moon 4:01 PM CST (2/23) 5:10 AM CST (2/23)
Length of Visible Light 11h 57m
Length of Day
11h 02m
Waxing Gibbous, 95% of the Moon is Illuminated
Feb 23
Waxing Gibbous
Feb 25
Full
Mar 4
Last Quarter
Mar 11
New
Mar 19
First Quarter

Hourly Weather History & Observations

Time (CST) Temp. Windchill Dew Point Humidity Pressure Visibility Wind Dir Wind Speed Gust Speed Precip Events Conditions
12:15 AM 26.6 °F 17.5 °F 15.8 °F 64% 30.01 in 10.0 mi West 9.2 mph - N/A   Overcast
12:35 AM 26.6 °F 19.1 °F 15.8 °F 64% 30.01 in 10.0 mi West 6.9 mph - N/A   Overcast
12:55 AM 26.6 °F 18.2 °F 15.8 °F 64% 30.00 in 10.0 mi West 8.1 mph - N/A   Overcast
1:15 AM 26.6 °F 19.1 °F 15.8 °F 64% 30.00 in 10.0 mi WSW 6.9 mph - N/A   Overcast
1:35 AM 26.6 °F 18.2 °F 14.0 °F 59% 30.01 in 10.0 mi WSW 8.1 mph - N/A   Overcast
1:55 AM 26.6 °F 19.1 °F 15.8 °F 64% 30.01 in 10.0 mi WSW 6.9 mph - N/A   Overcast
2:15 AM 24.8 °F 16.1 °F 14.0 °F 64% 30.00 in 10.0 mi West 8.1 mph - N/A   Overcast
2:35 AM 24.8 °F 16.9 °F 14.0 °F 64% 30.00 in 10.0 mi West 6.9 mph - N/A   Overcast
3:15 AM 24.8 °F 16.9 °F 14.0 °F 64% 30.00 in 10.0 mi WSW 6.9 mph - N/A   Overcast
3:35 AM 24.8 °F 16.9 °F 14.0 °F 64% 29.99 in 10.0 mi West 6.9 mph - N/A   Overcast
3:55 AM 24.8 °F 16.9 °F 14.0 °F 64% 29.99 in 10.0 mi West 6.9 mph - N/A   Overcast
4:15 AM 24.8 °F 16.9 °F 14.0 °F 64% 30.00 in 10.0 mi West 6.9 mph - N/A   Overcast
4:35 AM 24.8 °F 15.3 °F 14.0 °F 64% 30.00 in 10.0 mi West 9.2 mph - N/A   Overcast
4:55 AM 24.8 °F 15.3 °F 14.0 °F 64% 30.00 in 10.0 mi West 9.2 mph - N/A   Overcast
5:15 AM 24.8 °F 16.9 °F 12.2 °F 59% 29.99 in 10.0 mi West 6.9 mph - N/A   Overcast
5:35 AM 24.8 °F 17.9 °F 12.2 °F 59% 30.00 in 10.0 mi West 5.8 mph - N/A   Overcast
5:55 AM 24.8 °F 17.9 °F 12.2 °F 59% 30.00 in 10.0 mi West 5.8 mph - N/A   Overcast
6:15 AM 24.8 °F 17.9 °F 12.2 °F 59% 30.00 in 10.0 mi West 5.8 mph - N/A   Overcast
6:35 AM 24.8 °F 19.1 °F 12.2 °F 59% 30.01 in 10.0 mi West 4.6 mph - N/A   Overcast
6:55 AM 23.0 °F 14.7 °F 12.2 °F 63% 30.02 in 10.0 mi SW 6.9 mph - N/A   Overcast
7:15 AM 21.2 °F 13.6 °F 10.4 °F 63% 30.01 in 10.0 mi WSW 5.8 mph - N/A   Scattered Clouds
7:35 AM 19.4 °F 11.5 °F 10.4 °F 68% 30.01 in 10.0 mi West 5.8 mph - N/A   Clear
7:55 AM 19.4 °F 11.5 °F 10.4 °F 68% 30.01 in 10.0 mi West 5.8 mph - N/A   Clear
8:15 AM 21.2 °F 14.9 °F 10.4 °F 63% 30.00 in 10.0 mi West 4.6 mph - N/A   Scattered Clouds
8:35 AM 21.2 °F 13.6 °F 12.2 °F 68% 30.00 in 10.0 mi West 5.8 mph - N/A   Scattered Clouds
8:55 AM 23.0 °F 15.8 °F 12.2 °F 63% 30.01 in 10.0 mi WSW 5.8 mph - N/A   Mostly Cloudy
9:15 AM 24.8 °F 16.9 °F 12.2 °F 59% 30.01 in 10.0 mi West 6.9 mph - N/A   Overcast
9:35 AM 24.8 °F 19.1 °F 12.2 °F 59% 30.01 in 10.0 mi NW 4.6 mph - N/A   Mostly Cloudy
9:55 AM 24.8 °F 19.1 °F 14.0 °F 64% 30.01 in 10.0 mi WNW 4.6 mph - N/A   Scattered Clouds
10:15 AM 24.8 °F - 12.2 °F 59% 30.00 in 10.0 mi Calm Calm - N/A   Clear
10:35 AM 26.6 °F - 14.0 °F 59% 30.00 in 10.0 mi Calm Calm - N/A   Clear
10:55 AM 26.6 °F 21.2 °F 14.0 °F 59% 30.00 in 10.0 mi WSW 4.6 mph - 0.03 in   Clear
11:15 AM 28.4 °F - 14.0 °F 55% 30.00 in 10.0 mi Calm Calm - 0.02 in   Clear
11:35 AM 28.4 °F 24.6 °F 14.0 °F 55% 30.00 in 10.0 mi WSW 3.5 mph - 0.03 in   Clear
11:55 AM 28.4 °F - 14.0 °F 55% 29.99 in 10.0 mi Calm Calm - 0.04 in   Clear
12:15 PM 30.2 °F 26.7 °F 15.8 °F 55% 29.99 in 10.0 mi WSW 3.5 mph - N/A   Clear
12:35 PM 30.2 °F 25.4 °F 15.8 °F 55% 29.98 in 10.0 mi West 4.6 mph - N/A   Clear
12:55 PM 30.2 °F 23.4 °F 15.8 °F 55% 29.98 in 10.0 mi SW 6.9 mph - N/A   Clear
1:15 PM 30.2 °F 22.6 °F 15.8 °F 55% 29.98 in 10.0 mi SSW 8.1 mph - 0.01 in   Clear
1:35 PM 30.2 °F 22.6 °F 15.8 °F 55% 29.98 in 10.0 mi SW 8.1 mph - 0.01 in   Clear
1:55 PM 30.2 °F 21.9 °F 15.8 °F 55% 29.97 in 10.0 mi SW 9.2 mph - 0.01 in   Clear
2:15 PM 30.2 °F 21.9 °F 15.8 °F 55% 29.97 in 10.0 mi SW 9.2 mph - N/A   Clear
2:35 PM 32.0 °F 24.2 °F 15.8 °F 51% 29.97 in 10.0 mi SW 9.2 mph - N/A   Clear
2:55 PM 32.0 °F 24.8 °F 15.8 °F 51% 29.97 in 10.0 mi SW 8.1 mph - N/A   Clear
3:15 PM 32.0 °F 24.2 °F 15.8 °F 51% 29.96 in 10.0 mi SW 9.2 mph - N/A   Clear
3:35 PM 32.0 °F 24.8 °F 15.8 °F 51% 29.97 in 10.0 mi SW 8.1 mph - N/A   Clear
3:55 PM 32.0 °F 25.6 °F 15.8 °F 51% 29.97 in 10.0 mi SW 6.9 mph - N/A   Clear
4:15 PM 32.0 °F 24.8 °F 15.8 °F 51% 29.97 in 10.0 mi SW 8.1 mph - N/A   Clear
4:35 PM 32.0 °F 23.6 °F 15.8 °F 51% 29.97 in 10.0 mi SW 10.4 mph - N/A   Clear
4:55 PM 32.0 °F 24.2 °F 15.8 °F 51% 29.97 in 10.0 mi WSW 9.2 mph - N/A   Clear
5:15 PM 30.2 °F 24.3 °F 15.8 °F 55% 29.97 in 10.0 mi SSW 5.8 mph - N/A   Clear
5:35 PM 30.2 °F 22.6 °F 15.8 °F 55% 29.97 in 10.0 mi SSW 8.1 mph - N/A   Clear
5:55 PM 30.2 °F 24.3 °F 15.8 °F 55% 29.97 in 10.0 mi SSW 5.8 mph - N/A   Clear
6:15 PM 28.4 °F 22.2 °F 15.8 °F 59% 29.97 in 10.0 mi SSW 5.8 mph - N/A   Clear
6:55 PM 28.4 °F 21.2 °F 15.8 °F 59% 29.97 in 10.0 mi SSW 6.9 mph - N/A   Clear
7:15 PM 28.4 °F 22.2 °F 15.8 °F 59% 29.97 in 10.0 mi SW 5.8 mph - N/A   Clear
7:35 PM 26.6 °F 20.0 °F 15.8 °F 64% 29.98 in 10.0 mi SSW 5.8 mph - N/A   Clear
7:55 PM 26.6 °F 20.0 °F 15.8 °F 64% 29.98 in 10.0 mi SSW 5.8 mph - N/A   Clear
8:15 PM 26.6 °F 20.0 °F 15.8 °F 64% 29.99 in 10.0 mi SSW 5.8 mph - N/A   Clear
8:35 PM 26.6 °F 21.2 °F 15.8 °F 64% 29.98 in 10.0 mi SSW 4.6 mph - N/A   Clear
8:55 PM 24.8 °F 17.9 °F 14.0 °F 64% 29.99 in 10.0 mi SSW 5.8 mph - N/A   Clear
9:15 PM 24.8 °F 17.9 °F 14.0 °F 64% 29.99 in 10.0 mi SW 5.8 mph - N/A   Clear
9:35 PM 24.8 °F 17.9 °F 14.0 °F 64% 29.99 in 10.0 mi SSW 5.8 mph - N/A   Clear
9:55 PM 24.8 °F 17.9 °F 14.0 °F 64% 29.99 in 10.0 mi SW 5.8 mph - N/A   Clear
10:35 PM 23.0 °F 15.8 °F 12.2 °F 63% 29.98 in 10.0 mi SSW 5.8 mph - N/A   Clear
10:55 PM 23.0 °F 15.8 °F 12.2 °F 63% 29.98 in 10.0 mi SW 5.8 mph - N/A   Clear
11:15 PM 21.2 °F 10.9 °F 12.2 °F 68% 29.99 in 10.0 mi SW 9.2 mph - N/A   Clear
11:35 PM 23.0 °F 15.8 °F 12.2 °F 63% 29.99 in 10.0 mi SW 5.8 mph - N/A   Clear
11:55 PM 21.2 °F 13.6 °F 12.2 °F 68% 30.00 in 10.0 mi SW 5.8 mph - N/A   Clear